Total_Precipitation_Accumulation
2.60 2.75 2.65 2.57 2.58 2.50 2.91 3.32 3.55 3.31 3.04 2.87 2.61 2.50 2.64 2.79 2.91 2.58 2.41 2.51 2.36 2.16 1.98 1.87 1.87 1.99 2.21 2.43 2.57 2.71 2.92 3.32 3.73 3.89 4.12 4.66 5.20 5.57
2.70 2.73 2.62 2.54 2.67 2.58 2.72 3.04 3.33 3.54 3.23 2.68 2.50 2.34 2.36 2.19 2.40 2.13 2.19 2.42 2.23 2.04 1.89 1.84 1.82 1.84 1.89 2.01 2.10 2.13 2.20 2.33 2.58 2.86 2.91 3.18 3.66 4.10
2.79 2.81 2.86 2.95 2.92 2.82 2.91 2.99 3.20 3.50 3.37 2.77 2.63 2.59 2.46 2.21 2.18 2.08 2.03 2.16 2.20 2.29 2.06 1.90 1.76 1.66 1.68 1.75 1.82 1.91 2.02 2.12 2.20 2.39 2.50 2.55 2.69 2.92
2.90 3.19 3.09 3.15 3.10 2.92 3.05 2.98 3.11 3.50 3.36 2.97 2.90 2.91 2.84 2.58 2.43 2.22 1.98 1.99 2.15 2.45 2.18 1.98 1.83 1.73 1.72 1.74 1.77 1.78 1.78 1.87 1.97 2.10 2.14 2.17 2.28 2.45
2.87 2.96 3.02 3.27 3.15 3.05 2.96 2.92 3.05 3.26 3.43 3.11 2.98 3.19 3.04 2.73 2.60 2.29 2.07 2.19 1.96 2.12 2.12 2.09 2.02 1.88 1.80 1.71 1.75 1.78 1.74 1.73 1.78 1.91 2.04 2.17 2.23 2.21
2.80 2.72 2.82 3.07 3.18 3.19 2.96 2.98 3.15 3.27 3.35 3.25 3.08 3.20 3.23 3.13 2.96 2.66 2.54 2.38 2.19 2.04 2.14 2.09 2.11 1.97 1.80 1.65 1.68 1.72 1.73 1.77 1.74 1.72 1.73 1.81 1.89 1.94
2.56 2.46 2.46 2.73 2.97 3.07 2.78 2.85 3.07 3.08 3.08 3.11 3.08 3.16 3.23 3.38 3.21 2.88 2.63 2.48 2.24 2.06 2.11 1.98 2.02 1.93 1.84 1.81 1.78 1.69 1.52 1.52 1.55 1.55 1.57 1.66 1.70 1.70
2.59 2.47 2.36 2.31 2.33 2.52 2.64 2.78 2.95 2.94 2.95 3.13 3.27 3.33 3.33 3.41 3.41 3.18 2.88 2.64 2.38 2.13 2.28 2.26 2.21 2.21 1.97 1.73 1.76 1.68 1.53 1.46 1.43 1.37 1.38 1.46 1.54 1.58
2.51 2.48 2.16 1.95 2.09 2.02 2.26 2.41 2.49 2.58 2.69 2.95 3.11 3.16 3.29 3.45 3.58 3.29 3.09 2.89 2.59 2.33 2.40 2.23 2.16 2.22 2.13 1.96 2.01 1.77 1.65 1.54 1.48 1.45 1.44 1.38 1.36 1.41
2.23 2.28 2.22 2.07 2.04 2.18 2.18 2.08 1.99 2.05 2.25 2.32 2.46 2.74 2.97 3.22 3.45 3.36 3.31 3.01 2.65 2.39 2.38 2.21 2.04 2.06 2.14 2.16 2.14 1.92 1.72 1.59 1.45 1.40 1.40 1.34 1.30 1.35
2.04 2.08 2.11 2.03 2.22 2.20 2.10 2.04 2.02 2.00 2.09 2.22 2.23 2.39 2.65 2.81 3.00 3.14 3.12 2.99 2.69 2.47 2.47 2.43 2.18 2.13 2.16 2.10 1.97 1.97 1.78 1.61 1.49 1.43 1.37 1.32 1.35 1.39
2.05 2.06 2.10 2.02 2.09 1.99 1.90 1.98 1.94 1.95 2.06 2.07 2.07 2.08 2.16 2.49 2.87 2.71 2.77 2.86 2.61 2.32 2.12 2.26 2.24 2.33 2.29 1.99 1.80 1.71 1.67 1.66 1.64 1.53 1.46 1.42 1.48 1.36
2.19 2.11 2.11 2.13 1.85 1.79 1.75 1.76 1.82 1.89 2.02 1.90 1.79 1.80 1.92 2.11 2.36 2.45 2.45 2.47 2.44 2.15 1.93 2.03 2.01 2.12 2.12 1.89 1.76 1.67 1.56 1.49 1.44 1.47 1.56 1.60 1.59 1.44
2.16 2.22 2.25 2.17 1.81 1.67 1.54 1.52 1.63 1.63 1.66 1.73 1.70 1.68 1.75 1.89 2.07 2.23 2.31 2.39 2.33 2.17 2.14 2.21 2.06 2.00 1.99 1.81 1.66 1.59 1.61 1.58 1.53 1.45 1.48 1.78 1.79 1.74
2.01 2.17 2.06 1.95 1.76 1.52 1.46 1.48 1.51 1.44 1.52 1.66 1.70 1.67 1.66 1.76 2.03 2.37 2.56 2.67 2.60 2.26 2.13 2.19 2.21 2.18 2.19 1.96 1.71 1.55 1.56 1.57 1.53 1.55 1.55 1.66 1.71 1.72
1.90 1.98 1.97 1.92 1.84 1.68 1.58 1.49 1.41 1.45 1.53 1.58 1.71 1.85 1.97 2.06 2.18 2.30 2.49 2.58 2.61 2.33 2.10 2.10 2.11 2.24 2.16 1.93 1.86 1.69 1.49 1.47 1.48 1.58 1.63 1.66 1.78 1.82
1.89 1.89 1.92 2.01 2.03 1.97 1.88 1.78 1.73 1.73 1.73 1.71 1.84 1.98 1.99 2.01 2.04 2.19 2.36 2.42 2.31 2.10 1.95 1.90 2.03 2.12 2.14 2.12 1.97 1.67 1.49 1.39 1.40 1.60 1.83 1.86 1.80 1.76
1.86 1.89 2.04 2.10 2.12 2.12 2.10 1.96 1.83 1.73 1.69 1.77 1.82 1.90 1.97 2.00 2.02 2.14 2.30 2.33 2.18 2.03 2.00 1.85 1.91 2.14 2.23 2.10 1.84 1.68 1.59 1.50 1.46 1.64 1.81 1.87 1.83 1.69
1.61 1.73 1.93 1.98 2.01 2.02 2.02 1.91 1.84 1.79 1.80 1.89 1.98 2.03 2.06 2.05 2.06 2.10 2.22 2.28 2.20 2.05 1.97 1.97 1.94 2.05 2.10 1.79 1.45 1.41 1.58 1.64 1.69 1.76 1.84 1.82 1.74 1.59
1.36 1.50 1.66 1.81 1.93 2.04 2.09 2.07 2.00 1.96 1.93 1.90 1.99 2.07 2.16 2.22 2.19 2.12 2.18 2.26 2.23 2.14 2.08 2.03 2.00 1.96 1.95 1.83 1.59 1.42 1.47 1.65 1.81 1.82 1.78 1.84 1.82 1.76
1.31 1.34 1.44 1.65 1.90 2.05 2.15 2.23 2.23 2.15 2.01 1.97 2.01 2.10 2.16 2.25 2.24 2.15 2.17 2.32 2.31 2.20 2.01 1.81 1.80 2.04 2.15 2.28 2.06 1.57 1.43 1.52 1.66 1.79 1.84 1.92 1.89 1.84
1.31 1.35 1.43 1.57 1.77 1.99 2.07 2.05 2.08 2.04 2.01 2.00 1.99 2.06 2.14 2.20 2.18 2.15 2.18 2.28 2.25 2.14 1.98 1.90 2.07 2.32 2.39 2.33 2.02 1.72 1.60 1.57 1.66 1.77 1.77 1.78 1.77 1.70
1.50 1.43 1.43 1.49 1.63 1.78 1.85 1.89 1.94 1.93 1.90 1.94 1.95 1.96 2.04 2.14 2.21 2.21 2.17 2.20 2.23 2.26 2.34 2.31 2.29 2.30 2.28 2.22 2.11 1.94 1.78 1.73 1.77 1.80 1.65 1.56 1.47 1.39